{"data":{"norad_id":62776,"intl_designator":"2025-015U","name":"STARLINK-33570","alt_names":[],"object_type":"PAYLOAD","status":"ACTIVE","operator":null,"country":"US","launch_date":"2025-01-21","launch_site_code":"AFWTR","launch_vehicle":null,"mission":null,"orbit_class":"UNKNOWN","rcs_meters":null,"size_class":null,"mass_kg":null,"dimensions":null,"purposes":["comms"],"wikipedia_slug":null,"has_3d_model":false,"image_url":null,"decayed_at":null,"tle_current":{"epoch":"2026-05-24T22:42:04.431168Z","epoch_age_seconds":73591,"freshness":"FRESH","line1":"1 62776U 25015U   26144.94588462  .00031173  00000+0  92962-3 0  9999","line2":"2 62776  53.1599 327.7318 0000858 257.2732 102.8175 15.34410042 76104","mean_motion":15.34410042,"eccentricity":8.58e-5,"inclination_deg":53.1599,"raan_deg":327.7318,"arg_perigee_deg":257.2732,"mean_anomaly_deg":102.8175,"bstar":0.00092962,"rev_number":7610,"period_min":93.847143891411,"perigee_km":462.08645189787,"apogee_km":463.26033496138,"semimajor_km":6840.8103934296,"source":"CELESTRAK","updated_at":"2026-05-25T13:38:19.747105Z"}}}